GW5874 Weather Reports


time (UTC)temp
C
wind
direction
speed
KPH
gust
KPH
rain 1hr
cm
rain 24hr
cm
rain mn
cm
humidity
%
barometer
mb
20260903141741 28 214 3.2 6.4 0.00 0.00 0.00 65 1016.2
20260903141236 29 184 3.2 4.8 0.00 0.00 0.00 66 1016.3
20260903140731 28 178 3.2 6.4 0.00 0.00 0.00 67 1016.3
20260903140232 28 190 6.4 11.3 0.00 0.00 0.00 68 1016.4
20260903135728 28 214 4.8 6.4 0.00 0.00 0.00 69 1016.4
20260903135223 27 239 3.2 4.8 0.00 0.00 0.00 70 1016.3
20260903134721 27 179 1.6 1.6 0.00 0.00 0.00 72 1016.4
20260903134218 27 188 6.4 8.0 0.00 0.00 0.00 72 1016.5
20260903133715 26 202 4.8 4.8 0.00 0.00 0.00 73 1016.2
20260903133211 26 168 3.2 4.8 0.00 0.00 0.00 74 1016.4
20260903132712 26 172 4.8 4.8 0.00 0.00 0.00 75 1016.2
20260903132212 25 196 4.8 6.4 0.00 0.00 0.00 77 1016.2
20260903131707 25 211 4.8 6.4 0.00 0.00 0.00 78 1016.4
20260903131201 25 197 1.6 4.8 0.00 0.00 0.00 80 1016.3
20260903130656 23 208 1.6 1.6 0.00 0.00 0.00 83 1016.3
20260903130156 22 206 0.0 1.6 0.00 0.00 0.00 89 1016.2
20260903125654 21 208 1.6 1.6 0.00 0.00 0.00 92 1016.4
20260903125149 21 226 1.6 1.6 0.00 0.00 0.00 95 1016.3
20260903124644 21 251 0.0 0.0 0.00 0.00 0.00 95 1016.3
20260903124143 20 243 0.0 0.0 0.00 0.00 0.00 95 1016.1
20260903123643 20 250 0.0 0.0 0.00 0.00 0.00 95 1016.3
20260903123142 20 255 0.0 0.0 0.00 0.00 0.00 95 1016.1
20260903122641 20 255 0.0 0.0 0.00 0.00 0.00 95 1016.1
20260903122136 20 276 0.0 0.0 0.00 0.00 0.00 95 1015.8
20260903121635 20 276 0.0 0.0 0.00 0.00 0.00 95 1015.9
20260903121131 20 276 0.0 0.0 0.00 0.00 0.00 95 1015.9
20260903120630 20 276 0.0 0.0 0.00 0.00 0.00 95 1015.7
20260903120125 20 268 0.0 0.0 0.00 0.00 0.00 95 1015.8
20260903115623 20 274 0.0 0.0 0.00 0.00 0.00 95 1015.6
20260903115118 20 283 0.0 0.0 0.00 0.00 0.00 95 1015.7
20260903114614 20 287 0.0 0.0 0.00 0.00 0.00 95 1015.5
20260903114109 20 257 0.0 0.0 0.00 0.00 0.00 94 1015.7
20260903113604 20 276 0.0 0.0 0.00 0.00 0.00 94 1015.7
20260903113101 20 275 0.0 0.0 0.00 0.00 0.00 94 1015.8
20260903112557 20 286 0.0 0.0 0.00 0.00 0.00 94 1015.6
20260903112056 20 277 0.0 0.0 0.00 0.00 0.00 94 1015.7
20260903111555 20 277 0.0 0.0 0.00 0.00 0.00 94 1015.7
20260903111051 20 280 0.0 0.0 0.00 0.00 0.00 94 1015.9
20260903110547 20 280 0.0 0.0 0.00 0.00 0.00 94 1015.6
20260903110042 20 272 0.0 0.0 0.00 0.00 0.00 94 1015.6
20260903105537 20 264 0.0 0.0 0.00 0.00 0.00 94 1015.7
20260903105032 20 263 0.0 0.0 0.00 0.00 0.00 94 1015.7
20260903104531 20 272 0.0 0.0 0.00 0.00 0.00 93 1015.5
20260903104027 20 254 0.0 0.0 0.00 0.00 0.00 93 1015.5
20260903103523 20 277 0.0 0.0 0.00 0.00 0.00 93 1015.4
20260903103019 20 266 0.0 0.0 0.00 0.00 0.00 93 1015.5
20260903102514 20 271 0.0 0.0 0.00 0.00 0.00 93 1015.6
20260903102013 20 278 0.0 0.0 0.00 0.00 0.00 93 1015.6
20260903101508 20 288 1.6 1.6 0.00 0.00 0.00 93 1015.5
20260903101004 21 251 0.0 0.0 0.00 0.00 0.00 92 1015.7
20260903100459 21 274 0.0 0.0 0.00 0.00 0.00 92 1015.6
20260903095956 21 265 0.0 0.0 0.00 0.00 0.00 92 1015.6
20260903095456 21 263 0.0 0.0 0.00 0.00 0.00 92 1015.6
20260903094951 21 246 0.0 0.0 0.00 0.00 0.00 91 1015.6
20260903094450 21 275 0.0 0.0 0.00 0.00 0.00 91 1015.6
20260903093947 21 273 0.0 0.0 0.00 0.00 0.00 91 1015.4
20260903093441 21 268 0.0 0.0 0.00 0.00 0.00 91 1015.4
20260903092937 21 287 0.0 0.0 0.00 0.00 0.00 91 1015.4
20260903092437 21 268 0.0 0.0 0.00 0.00 0.00 91 1015.4
20260903091936 21 270 0.0 0.0 0.00 0.00 0.00 90 1015.2
20260903091434 21 270 0.0 0.0 0.00 0.00 0.00 90 1015.4
20260903090929 21 270 0.0 0.0 0.00 0.00 0.00 90 1015.2
20260903090425 21 270 0.0 0.0 0.00 0.00 0.00 90 1015.3
20260903085924 21 270 0.0 0.0 0.00 0.00 0.00 90 1015.4
20260903085422 21 267 0.0 0.0 0.00 0.00 0.00 89 1015.3
20260903084922 21 271 0.0 0.0 0.00 0.00 0.00 89 1015.2
20260903084421 22 265 0.0 0.0 0.00 0.00 0.00 88 1015.3
20260903083916 22 265 0.0 0.0 0.00 0.00 0.00 87 1015.4
20260903083412 22 280 0.0 0.0 0.00 0.00 0.00 86 1015.3
20260903082911 22 274 0.0 0.0 0.00 0.00 0.00 86 1015.2
20260903082406 22 273 0.0 0.0 0.00 0.00 0.00 86 1015.1
20260903081901 22 259 0.0 0.0 0.00 0.00 0.00 85 1015.2
20260903081356 22 259 0.0 0.0 0.00 0.00 0.00 85 1015.0
20260903080853 22 271 0.0 0.0 0.00 0.00 0.00 84 1014.9
20260903080349 22 265 0.0 0.0 0.00 0.00 0.00 83 1014.8
20260903075849 22 263 0.0 0.0 0.00 0.00 0.00 83 1014.8
20260903075345 22 262 0.0 0.0 0.00 0.00 0.00 83 1014.9
20260903074845 23 269 0.0 0.0 0.00 0.00 0.00 82 1015.0
20260903074344 23 243 0.0 0.0 0.00 0.00 0.00 82 1014.9
20260903073840 23 234 1.6 1.6 0.00 0.00 0.00 82 1014.9
20260903073335 23 272 0.0 0.0 0.00 0.00 0.00 82 1015.0
20260903072831 23 238 0.0 0.0 0.00 0.00 0.00 82 1015.0
20260903072327 22 240 0.0 0.0 0.00 0.00 0.00 84 1014.9
20260903071824 22 238 0.0 0.0 0.00 0.00 0.00 84 1014.9
20260903071319 22 257 0.0 0.0 0.00 0.00 0.00 83 1015.0
20260903070814 23 273 0.0 0.0 0.00 0.00 0.00 83 1015.0
20260903070309 22 275 0.0 0.0 0.00 0.00 0.00 83 1014.9
20260903065804 22 264 0.0 0.0 0.00 0.00 0.00 83 1014.9
20260903065306 22 263 0.0 0.0 0.00 0.00 0.00 84 1014.7
20260903064802 22 266 0.0 0.0 0.00 0.00 0.00 85 1014.8
20260903064258 22 266 0.0 0.0 0.00 0.00 0.00 85 1014.9
20260903063754 22 246 0.0 0.0 0.00 0.00 0.00 85 1015.0
20260903063249 22 266 0.0 0.0 0.00 0.00 0.00 85 1014.8
20260903062745 22 276 0.0 0.0 0.00 0.00 0.00 85 1014.8
20260903062244 22 275 0.0 0.0 0.00 0.00 0.00 85 1015.0
20260903061741 22 266 0.0 0.0 0.00 0.00 0.00 85 1014.8
20260903061239 22 294 0.0 0.0 0.00 0.00 0.00 85 1014.9
20260903060736 22 271 0.0 0.0 0.00 0.00 0.00 84 1014.8
20260903060235 22 267 0.0 0.0 0.00 0.00 0.00 83 1015.0
20260903055733 23 262 0.0 0.0 0.00 0.00 0.00 84 1014.9
20260903055231 22 248 0.0 0.0 0.00 0.00 0.00 84 1014.6
20260903054726 22 262 0.0 0.0 0.00 0.00 0.00 84 1015.0
20260903054221 22 256 0.0 0.0 0.00 0.00 0.00 84 1014.6
20260903053718 22 250 0.0 0.0 0.00 0.00 0.00 84 1014.7
20260903053213 23 254 0.0 0.0 0.00 0.00 0.00 83 1014.6
20260903052709 23 251 0.0 0.0 0.00 0.00 0.00 83 1014.9
20260903052204 23 279 0.0 0.0 0.00 0.00 0.00 83 1014.7
20260903051705 23 263 0.0 0.0 0.00 0.00 0.00 83 1014.8
20260903051200 23 272 0.0 0.0 0.00 0.00 0.00 82 1014.9
20260903050656 23 268 0.0 0.0 0.00 0.00 0.00 82 1014.8
20260903050154 23 268 0.0 0.0 0.00 0.00 0.00 81 1014.8
20260903045649 23 268 0.0 0.0 0.00 0.00 0.00 80 1014.8
20260903045146 23 277 0.0 0.0 0.00 0.00 0.00 80 1014.6
20260903044642 23 284 0.0 0.0 0.00 0.00 0.00 80 1014.7
20260903044137 23 264 0.0 0.0 0.00 0.00 0.00 79 1014.6
20260903043634 23 282 0.0 0.0 0.00 0.00 0.00 79 1014.6
20260903043133 23 282 0.0 0.0 0.00 0.00 0.00 79 1014.6
20260903042632 23 269 0.0 0.0 0.00 0.00 0.00 79 1014.8
20260903042127 23 265 0.0 0.0 0.00 0.00 0.00 79 1014.5
20260903041624 23 302 0.0 0.0 0.00 0.00 0.00 78 1014.5
20260903041120 23 243 0.0 0.0 0.00 0.00 0.00 78 1014.5
20260903040618 23 271 0.0 0.0 0.00 0.00 0.00 78 1014.8
20260903040115 23 266 0.0 0.0 0.00 0.00 0.00 78 1014.7
20260903035610 24 256 0.0 0.0 0.00 0.00 0.00 77 1014.8
20260903035106 24 272 0.0 0.0 0.00 0.00 0.00 77 1014.6
20260903034600 24 252 0.0 0.0 0.00 0.00 0.00 77 1014.5
20260903034056 24 269 0.0 0.0 0.00 0.00 0.00 76 1014.9
20260903033551 24 264 0.0 0.0 0.00 0.00 0.00 76 1014.7
20260903033046 24 269 0.0 0.0 0.00 0.00 0.00 75 1014.6
20260903032541 25 247 0.0 0.0 0.00 0.00 0.00 75 1014.6
20260903032036 25 247 0.0 0.0 0.00 0.00 0.00 74 1014.5
20260903031536 25 265 0.0 0.0 0.00 0.00 0.00 74 1014.6
20260903031031 25 270 0.0 0.0 0.00 0.00 0.00 73 1014.6
20260903030527 25 262 0.0 0.0 0.00 0.00 0.00 73 1014.6
20260903030023 25 249 0.0 0.0 0.00 0.00 0.00 73 1014.5
20260903025518 25 264 0.0 0.0 0.00 0.00 0.00 72 1014.5
20260903025014 25 267 0.0 0.0 0.00 0.00 0.00 72 1014.4
20260903024508 25 237 0.0 0.0 0.00 0.00 0.00 72 1014.4
20260903024007 25 292 0.0 0.0 0.00 0.00 0.00 71 1014.3
20260903023503 26 244 0.0 0.0 0.00 0.00 0.00 70 1014.2
20260903022958 26 267 0.0 0.0 0.00 0.00 0.00 71 1014.2
20260903022457 26 229 0.0 0.0 0.00 0.00 0.00 70 1014.1
20260903021955 26 255 0.0 0.0 0.00 0.00 0.00 69 1014.0
20260903021451 26 248 0.0 0.0 0.00 0.00 0.00 69 1014.2
20260903020946 26 268 0.0 0.0 0.00 0.00 0.00 68 1014.0
20260903020442 26 264 0.0 0.0 0.00 0.00 0.00 68 1013.9
20260903015936 26 235 0.0 0.0 0.00 0.00 0.00 69 1013.8
20260903015432 26 278 0.0 0.0 0.00 0.00 0.00 68 1013.7
20260903014927 26 258 0.0 0.0 0.00 0.00 0.00 67 1013.5
20260903014426 27 257 0.0 0.0 0.00 0.00 0.00 67 1013.6
20260903013921 27 273 0.0 0.0 0.00 0.00 0.00 66 1013.6
20260903013421 27 273 0.0 0.0 0.00 0.00 0.00 64 1013.3
20260903012921 27 246 0.0 0.0 0.00 0.00 0.00 64 1013.3
20260903012420 27 267 0.0 0.0 0.00 0.00 0.00 63 1013.4
20260903011919 28 282 0.0 0.0 0.00 0.00 0.00 62 1013.1
20260903011414 28 285 0.0 0.0 0.00 0.00 0.00 61 1013.2
20260903010909 28 264 0.0 0.0 0.00 0.00 0.00 59 1013.1
20260903010404 28 256 0.0 0.0 0.00 0.00 0.00 59 1013.1
20260903005902 29 230 0.0 0.0 0.00 0.00 0.00 59 1013.2
20260903005357 30 222 0.0 0.0 0.00 0.00 0.00 57 1013.2
20260903004854 30 218 0.0 0.0 0.00 0.00 0.00 54 1013.1
20260903004349 31 197 1.6 1.6 0.00 0.00 0.00 52 1013.0
20260903003844 31 222 0.0 0.0 0.00 0.00 0.00 50 1013.0
20260903003344 32 235 0.0 1.6 0.00 0.00 0.00 47 1013.1
20260903002844 32 291 1.6 1.6 0.00 0.00 0.00 44 1013.0
20260903002339 33 243 0.0 0.0 0.00 0.00 0.00 43 1013.1
20260903001834 33 281 0.0 0.0 0.00 0.00 0.00 42 1012.8
20260903001329 34 237 0.0 0.0 0.00 0.00 0.00 42 1013.0
20260903000829 34 198 4.8 6.4 0.00 0.00 0.00 40 1013.0
20260903000325 35 245 1.6 1.6 0.00 0.00 0.00 39 1013.0
20260902235821 35 166 0.0 1.6 0.00 0.00 0.00 39 1012.8
20260902235317 35 259 1.6 1.6 0.00 0.00 0.00 38 1012.8
20260902234811 35 95 3.2 8.0 0.00 0.00 0.00 37 1012.8
20260902234311 35 225 1.6 4.8 0.00 0.00 0.00 38 1013.0
20260902233810 35 226 3.2 6.4 0.00 0.00 0.00 37 1013.0
20260902233310 36 213 4.8 6.4 0.00 0.00 0.00 36 1013.0
20260902232809 36 194 3.2 4.8 0.00 0.00 0.00 36 1013.0
20260902232309 36 90 6.4 8.0 0.00 0.00 0.00 36 1013.2
20260902231808 36 226 3.2 4.8 0.00 0.00 0.00 37 1013.1
20260902231303 37 207 3.2 4.8 0.00 0.00 0.00 36 1013.2
20260902230759 36 245 3.2 4.8 0.00 0.00 0.00 34 1013.1
20260902230257 36 216 3.2 4.8 0.00 0.00 0.00 35 1013.2
20260902225752 36 243 1.6 1.6 0.00 0.00 0.00 36 1013.1
20260902225247 37 186 4.8 8.0 0.00 0.00 0.00 34 1013.3
20260902224746 37 195 8.0 8.0 0.00 0.00 0.00 34 1013.2
20260902224242 37 186 8.0 8.0 0.00 0.00 0.00 36 1013.3
20260902223738 37 260 1.6 1.6 0.00 0.00 0.00 33 1013.3
20260902223237 37 217 3.2 4.8 0.00 0.00 0.00 34 1013.4
20260902222737 37 253 3.2 4.8 0.00 0.00 0.00 34 1013.3
20260902222236 37 245 3.2 6.4 0.00 0.00 0.00 33 1013.4
20260902221731 36 235 3.2 4.8 0.00 0.00 0.00 33 1013.5
20260902221230 36 168 9.7 11.3 0.00 0.00 0.00 33 1013.5
20260902220726 37 241 8.0 8.0 0.00 0.00 0.00 32 1013.5
20260902220225 38 185 4.8 6.4 0.00 0.00 0.00 32 1013.5
20260902215721 39 237 3.2 4.8 0.00 0.00 0.00 31 1013.5
20260902215216 39 299 3.2 4.8 0.00 0.00 0.00 31 1013.5
20260902214712 39 231 1.6 1.6 0.00 0.00 0.00 31 1013.6
20260902214210 39 268 3.2 4.8 0.00 0.00 0.00 30 1013.5
20260902213706 40 278 3.2 4.8 0.00 0.00 0.00 31 1013.7
20260902213201 39 247 3.2 4.8 0.00 0.00 0.00 31 1013.7
20260902212655 38 263 3.2 4.8 0.00 0.00 0.00 32 1013.7
20260902212152 38 204 8.0 11.3 0.00 0.00 0.00 32 1013.6
20260902211648 37 259 0.0 1.6 0.00 0.00 0.00 34 1013.9
20260902211148 36 188 3.2 6.4 0.00 0.00 0.00 37 1013.9
20260902210648 36 240 3.2 4.8 0.00 0.00 0.00 36 1013.9
20260902210143 36 255 1.6 1.6 0.00 0.00 0.00 37 1014.1
20260902205642 37 221 3.2 4.8 0.00 0.00 0.00 36 1014.0
20260902205137 38 236 1.6 1.6 0.00 0.00 0.00 35 1014.0
20260902204632 38 149 6.4 8.0 0.00 0.00 0.00 35 1014.1
20260902204126 37 269 3.2 4.8 0.00 0.00 0.00 35 1014.3
20260902203622 37 202 3.2 6.4 0.00 0.00 0.00 37 1014.3
20260902203122 38 153 8.0 11.3 0.00 0.00 0.00 34 1014.4
20260902202617 38 179 11.3 16.1 0.00 0.00 0.00 35 1014.3
20260902202114 38 201 3.2 4.8 0.00 0.00 0.00 33 1014.4
20260902201609 38 164 6.4 11.3 0.00 0.00 0.00 34 1014.3
20260902201108 37 258 4.8 6.4 0.00 0.00 0.00 35 1014.6
20260902200604 37 193 8.0 12.9 0.00 0.00 0.00 37 1014.5
20260902200059 37 251 0.0 0.0 0.00 0.00 0.00 37 1014.7
20260902195555 37 229 0.0 0.0 0.00 0.00 0.00 37 1014.7
20260902195054 37 170 6.4 8.0 0.00 0.00 0.00 37 1015.0
20260902194553 37 181 6.4 16.1 0.00 0.00 0.00 37 1015.2
20260902194049 37 163 9.7 12.9 0.00 0.00 0.00 37 1014.9
20260902193545 37 20 4.8 6.4 0.00 0.00 0.00 36 1015.0
20260902193044 37 166 14.5 17.7 0.00 0.00 0.00 36 1015.1
20260902192543 36 260 4.8 6.4 0.00 0.00 0.00 39 1015.1
20260902192042 37 219 6.4 8.0 0.00 0.00 0.00 36 1015.2
20260902191537 37 201 4.8 11.3 0.00 0.00 0.00 37 1015.4
20260902191032 37 226 8.0 8.0 0.00 0.00 0.00 36 1015.3
20260902190528 37 202 8.0 11.3 0.00 0.00 0.00 38 1015.6
20260902190023 36 207 4.8 6.4 0.00 0.00 0.00 38 1015.6
20260902185519 36 208 6.4 8.0 0.00 0.00 0.00 38 1015.7
20260902185014 36 240 3.2 6.4 0.00 0.00 0.00 38 1015.6
20260902184509 37 183 9.7 12.9 0.00 0.00 0.00 36 1015.8
20260902184004 37 244 6.4 8.0 0.00 0.00 0.00 37 1016.1
20260902183501 36 142 6.4 8.0 0.00 0.00 0.00 38 1015.9
20260902182957 36 212 3.2 4.8 0.00 0.00 0.00 39 1015.9
20260902182452 36 148 9.7 12.9 0.00 0.00 0.00 40 1016.4
20260902181948 36 99 9.7 12.9 0.00 0.00 0.00 40 1016.2
20260902181444 36 163 8.0 11.3 0.00 0.00 0.00 39 1016.3
20260902180938 37 206 9.7 11.3 0.00 0.00 0.00 39 1016.4
20260902180434 37 280 3.2 4.8 0.00 0.00 0.00 39 1016.5
20260902175930 37 159 4.8 6.4 0.00 0.00 0.00 38 1016.5
20260902175424 37 243 4.8 6.4 0.00 0.00 0.00 38 1016.7
20260902174920 36 278 4.8 6.4 0.00 0.00 0.00 40 1016.6
20260902174417 36 231 4.8 6.4 0.00 0.00 0.00 39 1016.8
20260902173912 36 302 3.2 4.8 0.00 0.00 0.00 40 1016.8
20260902173411 35 188 4.8 6.4 0.00 0.00 0.00 42 1017.0
20260902172906 35 238 6.4 8.0 0.00 0.00 0.00 42 1017.1
20260902172406 36 205 6.4 6.4 0.00 0.00 0.00 42 1017.1
20260902171901 36 211 8.0 8.0 0.00 0.00 0.00 42 1017.1
20260902171356 35 243 3.2 4.8 0.00 0.00 0.00 44 1017.3
20260902170852 35 199 1.6 1.6 0.00 0.00 0.00 44 1017.6
20260902170347 35 331 3.2 4.8 0.00 0.00 0.00 43 1017.3
20260902165843 35 205 3.2 4.8 0.00 0.00 0.00 44 1017.4
20260902165342 35 203 6.4 8.0 0.00 0.00 0.00 44 1017.6
20260902164842 35 258 1.6 1.6 0.00 0.00 0.00 44 1017.6
20260902164337 35 189 11.3 12.9 0.00 0.00 0.00 44 1017.6
20260902163836 35 235 3.2 4.8 0.00 0.00 0.00 46 1017.8
20260902163331 34 262 1.6 1.6 0.00 0.00 0.00 47 1017.7
20260902162830 33 182 6.4 8.0 0.00 0.00 0.00 48 1017.7
20260902162325 33 129 3.2 6.4 0.00 0.00 0.00 49 1017.8
20260902161824 33 197 3.2 4.8 0.00 0.00 0.00 49 1018.0
20260902161320 33 170 11.3 12.9 0.00 0.00 0.00 50 1017.9
20260902160816 33 234 9.7 12.9 0.00 0.00 0.00 48 1017.9
20260902160311 33 236 4.8 6.4 0.00 0.00 0.00 49 1017.9
20260902155809 32 111 8.0 11.3 0.00 0.00 0.00 51 1017.9
20260902155308 32 250 8.0 8.0 0.00 0.00 0.00 52 1017.9
20260902154803 32 201 12.9 12.9 0.00 0.00 0.00 53 1017.9
20260902154259 32 207 11.3 17.7 0.00 0.00 0.00 53 1017.9
20260902153758 32 225 9.7 12.9 0.00 0.00 0.00 52 1018.1
20260902153252 32 138 6.4 8.0 0.00 0.00 0.00 54 1017.8
20260902152748 32 180 3.2 8.0 0.00 0.00 0.00 54 1018.0
20260902152245 31 192 4.8 6.4 0.00 0.00 0.00 56 1018.2
20260902151744 30 280 1.6 1.6 0.00 0.00 0.00 59 1018.0
20260902151240 30 178 6.4 6.4 0.00 0.00 0.00 59 1018.2
20260902150734 31 179 3.2 4.8 0.00 0.00 0.00 59 1018.0
20260902150231 31 257 0.0 1.6 0.00 0.00 0.00 58 1017.9
20260902145724 31 257 3.2 4.8 0.00 0.00 0.00 58 1017.9
20260902145219 30 286 4.8 6.4 0.00 0.00 0.00 61 1018.0
20260902144715 30 209 3.2 4.8 0.00 0.00 0.00 62 1017.9
20260902144210 29 240 4.8 6.4 0.00 0.00 0.00 63 1018.0
20260902143706 28 170 4.8 6.4 0.00 0.00 0.00 64 1018.1
20260902143201 28 123 6.4 6.4 0.00 0.00 0.00 65 1018.1
20260902142656 28 208 3.2 4.8 0.00 0.00 0.00 68 1018.1
20260902142152 28 190 3.2 4.8 0.00 0.00 0.00 69 1018.2